www.pogodaiklimat.ru

Погода и климат >> Архив погоды >> Россия >> город Санкт-Петербург >> Санкт-Петербург


АРХИВ ПОГОДЫ в Санкт-Петербурге

Время (UTC), дата Ветер
(напр.,м/с)
 
Видим.   Явления Облачность Т
(С)
Тd
(С)
f
(%)
Тe
(С)
Тes
(С)
Комфортность P
(гПа)
Po
(гПа)
Тmin
(С)
Tmax
(С)
R
(мм)
R24
(мм)
S
(см)
21 16.04 штиль 0 10 км 10/8 600 м
[Sc Ac As]
+8.9 +0.6 56 +9 +9 тепло 1016.0 1015.3
00 17.04 штиль 0 10 км 10/8 600 м
[Sc Ac As]
+10.4 +2.4 58 +10 +10 тепло 1014.9 1014.2
03 17.04 штиль 0 10 км 10/8 600 м
[Sc Ac As]
+9.8 +2.9 62 +9 +9 тепло 1013.7 1013.0 +8.6
06 17.04 ЮВ 1 10 км 10/6
[Sc As trans]
+11.8 +5.1 63 +12 +13 тепло 1013.0 1012.3 +8.6
09 17.04 штиль 0 10 км слабый дождь 10/8
[Sc As trans]
+12.6 +8.3 75 +12 +13 тепло 1013.2 1012.5
12 17.04 штиль 0 4000 м слабый дождь 10/10 300 м
[Frnb Ns]
+12.5 +10.2 86 +12 +12 тепло 1012.6 1011.8
15 17.04 штиль 0 4000 м дождь 10/10
[Frnb Ns]
+11.1 +9.8 92 +10 +10 тепло 1011.3 1010.5 3
18 17.04 З 2 2000 м ливневой дождь {туман} 10/10 200 м
[Cb cap]
+4.7 +4.0 95 +2 +2 по сезону 1011.1 1010.3 +12.8 7
21 17.04 СЗ 2 4000 м слабый ливневой дождь 10/10 200 м
[Cb cap]
+4.7 +4.1 96 +2 +2 по сезону 1010.3 1009.5
00 18.04 СЗ 1 4000 м слабый ливневой дождь 10/10 200 м
[Cb cap]
+4.9 +4.3 96 +3 +3 по сезону 1010.3 1009.6
03 18.04 С 2 4000 м слабый ливневой дождь 10/10 200 м
[Cb cap]
+4.7 +4.1 96 +2 +2 по сезону 1011.0 1010.3 +4.4 17
06 18.04 С 2 4000 м слабый дождь {ливн. осадки} 10/10 300 м
[Frnb Ns]
+5.1 +4.2 94 +2 +2 по сезону 1012.9 1012.1 +4.4 16
09 18.04 С 2 10 км {дождь} 9/8 600 м
[Sc Ac As]
+7.3 +3.5 77 +5 +6 по сезону 1014.6 1013.9
12 18.04 СВ 2 10 км {дождь} 8/6 570 м
[Sc Ac As]
+13.2 +1.7 46 +13 +15 тепло 1015.9 1015.1
15 18.04 ЮЗ 2 10 км 8/5 480 м
[Sc Ac As]
+7.2 +3.5 77 +5 +6 по сезону 1016.6 1015.8 3
18 18.04 ЮЗ 2 10 км 3/0
[Ac As]
+4.4 +3.0 91 +2 +2 по сезону 1017.1 1016.3 +13.7 0.0
21 18.04 З 2 10 км 6/0
[Ac As]
+3.6 +2.7 94 +1 +1 по сезону 1017.0 1016.3
00 19.04 штиль 0 10 км 10/10 240 м
[St]
+3.3 +2.6 95 +2 +2 по сезону 1016.1 1015.3
03 19.04 З 1 10 км 8/0
[Ac As]
+2.8 +2.3 97 +1 +1 по сезону 1015.7 1014.9 +2.4
06 19.04 СЗ 2 10 км 6/0
[Ac trans]
+7.0 +5.2 88 +5 +7 по сезону 1016.3 1015.5 +2.4
09 19.04 З 3 10 км 3/0
[Ci fib]
+9.6 +4.0 68 +8 +15 по сезону 1017.4 1016.7
12 19.04 ЮЗ 3 10 км 1/1 300 м
[Cu hum]
+11.5 +3.8 59 +10 +16 тепло 1018.1 1017.3
15 19.04 ЮЗ 2 10 км 3/1 300 м
[Cu hum Ac trans]
+9.8 +3.5 65 +9 +10 тепло 1018.6 1017.8
18 19.04 С 2 10 км 3/3 300 м
[Sc diur, vesp Ac trans]
+11.3 +0.8 48 +11 +11 тепло 1019.4 1018.6 +12.6
21 19.04 ЮЗ 1 10 км ясно +5.3 +1.7 78 +4 +4 по сезону 1020.2 1019.4
00 20.04 штиль 0 10 км ясно +3.7 +1.3 84 +3 +3 по сезону 1020.3 1019.5
03 20.04 ЮЗ 1 10 км ясно +2.7 +1.4 91 +1 +1 по сезону 1019.8 1019.0 +2.4
06 20.04 ЮЗ 2 10 км 10/0
[As trans]
+5.4 +1.9 78 +3 +5 по сезону 1019.6 1018.9 +2.4
09 20.04 ЮЗ 1 10 км 10/4 1000 м
[Sc As trans]
+7.0 +2.1 71 +6 +9 по сезону 1018.0 1017.2
12 20.04 ЮЗ 1 10 км {ливн. осадки} 10/8 1000 м
[Sc As trans]
+9.4 +2.0 60 +9 +10 по сезону 1015.0 1014.3
15 20.04 Ю 1 10 км 10/10 600 м
[Sc]
+12.7 +3.9 55 +13 +13 тепло 1010.1 1009.4 0.0
18 20.04 З 3 10 км 10/10 600 м
[Sc]
+8.0 +5.1 82 +5 +5 по сезону 1007.5 1006.8 +13.1 0.0
21 20.04 З 1 10 км 9/9 600 м
[Sc]
+6.3 +4.2 86 +5 +5 по сезону 1004.6 1003.9
00 21.04 ЮЗ 1 10 км 10/5 600 м
[Sc As op]
+6.4 +4.6 88 +5 +5 по сезону 1000.6 999.8
03 21.04 штиль 0 10 км в посл. час ливневой дождь 10/8 300 м
[Cb cap As op]
+6.6 +5.3 91 +6 +6 по сезону 994.0 993.2 +6.2 0.5
06 21.04 СЗ 3 10 км {ливн. осадки} 10/10 210 м
[St]
+7.5 +6.6 94 +4 +4 по сезону 990.7 990.0 +6.2 3
09 21.04 СЗ 1 10 км в посл. час ливневой дождь 10/10 210 м
[Sc diur, vesp]
+4.9 +4.0 94 +3 +3 прохладно 989.9 989.2
12 21.04 С 4
{12}
10 км в посл. час дождь {ливн. осадки} 10/10 540 м
[Sc diur, vesp]
+6.2 +4.2 87 +2 +2 холодно 994.9 994.2
15 21.04 С 5-10
{12}
10 км 10/10 480 м
[Sc]
+5.1 +2.2 82 +1 +1 холодно 999.0 998.3 6
18 21.04 С 2
{12}
10 км 10/10 540 м
[Sc]
+4.7 +1.2 78 +2 +2 прохладно 1001.4 1000.6 +7.5 4
21 21.04 СВ 2 10 км 9/9 600 м
[Sc]
+3.6 -0.2 76 +1 +1 прохладно 1002.3 1001.6
00 22.04 СВ 1 10 км 10/10 420 м
[Sc]
+2.3 -0.8 80 +1 +1 по сезону 1003.6 1002.8
03 22.04 СВ 2 10 км 10/8 450 м
[Sc Ac trans]
+1.8 -1.1 81 -1 -1 прохладно 1005.0 1004.2 +1.8
06 22.04 СВ 3 10 км 9/9 500 м
[Sc]
+2.7 -2.3 70 -1 -1 прохладно 1007.3 1006.5 +1.6
09 22.04 СВ 2 10 км 9/9 480 м
[Sc]
+4.3 -5.6 49 +2 +3 прохладно 1009.8 1009.0
12 22.04 С 3 10 км 8/5 600 м
[Cu Sc Ac As]
+6.1 -5.9 42 +4 +6 прохладно 1011.9 1011.2
15 22.04 СВ 3 10 км 6/3 300 м
[Cu Sc Ac As]
+5.0 -7.8 39 +2 +3 холодно 1013.6 1012.8
18 22.04 С 2 10 км ясно +3.0 -9.4 40 +1 +1 прохладно 1015.2 1014.4 +6.1
21 22.04 штиль 0 10 км ясно +0.3 -6.9 58 -0 -0 прохладно 1016.1 1015.3
00 23.04 штиль 0 10 км ясно -0.7 -6.5 65 -1 -1 прохладно 1017.1 1016.3
03 23.04 штиль 0 10 км ясно -1.4 -6.1 70 -2 -2 холодно 1017.9 1017.1 -1.6
06 23.04 ЮЗ 1 10 км 9/0
[Ac trans]
+3.8 -5.5 51 +3 +5 по сезону 1018.2 1017.4 -1.6
09 23.04 З 2 10 км 1/1 600 м
[Cu hum]
+6.1 -6.7 39 +5 +14 опасность
простуды
1017.9 1017.1
12 23.04 ЮЗ 2 10 км ясно +7.8 -7.7 32 +7 +15 по сезону 1016.9 1016.1
15 23.04 ЮЗ 1 10 км 1/0
[Ac trans]
+7.3 -8.1 33 +7 +10 по сезону 1015.2 1014.4
18 23.04 штиль 0 10 км ясно +4.6 -8.1 39 +4 +4 по сезону 1014.5 1013.7 +8.3

 

Местоположение метеостанции Санкт-Петербург (город Санкт-Петербург, Россия): широта 59.97 долгота 30.30 высота над уровнем моря 6 м.

В архиве по умолчанию представлена погода в Санкт-Петербурге за последнюю неделю. Архивные данные за месяц целиком и за предыдущие месяцы, начиная с января 2011 года, Вы можете получить, выбрав интересующий диапазон дат из раскрывающегося списка и нажав кнопку "Ввод!".


*Определитесь, кто Вы:
робот инопланетянин человек

Внимание! Время в таблицах - всемирное. Для получения местного времени необходимо прибавить поправку, которая в Санкт-Петербурге равна 3 ч.

Смотрите также архив погоды в соседних городах и на ближайших метеорологических станциях:

Погода в Лисьем Носу (город Санкт-Петербург, Россия) (19 км)
Погода в Воейково (город Санкт-Петербург, Россия) (22 км)
Погода в Ломоносове (город Санкт-Петербург, Россия) (29 км)
Погода в Кронштадте (город Санкт-Петербург, Россия) (30 км)
Погода в Шлиссельбурге (Ленинградская область, Россия) (39 км)
Погода в Рощино (Ленинградская область, Россия) (48 км)
Погода в Шепелево (Ленинградская область, Россия) (58 км)
Погода в Сосново (Ленинградская область, Россия) (65 км)
Погода в Сосновом Бору (Ленинградская область, Россия) (65 км)
Погода в Белогорке (Ленинградская область, Россия) (70 км)

Пояснения к столбцам:

Ветер - указаны скорость ветра в м/с - средняя за 10 мин, порывы в срок и между сроками (в фигурных скобках) и направление, откуда дует ветер: С - северный, СВ - северо-восточный, В - восточный, ЮВ - юго-восточный, Ю - южный, ЮЗ - юго-западный, З - западный, СЗ - северо-западный.
Видимость - горизонтальная дальность видимости в метрах или километрах. При видимости от 1 до 10 км при отсутствии осадков обычно наблюдается дымка, при ухудшении видимости до 1 км и менее - туман. В сухую погоду видимость может ухудшаться дымом, пылью или мглою.
Явления - указаны атмосферные явления, наблюдавшиеся в срок или в последний час перед сроком; фигурными скобками обозначены явления, наблюдавшиеся между сроками (за 1-3 часа до срока); квадратными скобками обозначены град или гололедные отложения с указанием их диаметра в мм.
Облачность - указаны через наклонную черту общая и нижняя облачность в баллах и высота нижней границы облаков в метрах; квадратными скобками обозначены формы облаков: Ci - перистые, Cs - перисто-слоистые, Cc - перисто-кучевые, Ac - высококучевые, As - высокослоистые, Sc - слоисто-кучевые, Ns - слоисто-дождевые, Cu - кучевые, Cb - кучево-дождевые. Подробнее классификацию облаков см. в Атласе облаков (PDF).
T - Температура воздуха - температура, измеренная на высоте 2 м над землей.
Td - Температура точки росы - температура, при понижении до которой содержащийся в воздухе водяной пар достигнет насыщения.
f - Относительная влажность воздуха - влажноcть воздуха, измеренная на высоте 2 м над землей.
Te - Эффективная температура - температура, которую ощущает одетый по сезону человек в тени. Характеристика душности погоды. При расчете учитывается влияние влажности воздуха и скорости ветра на теплоощущения человека.
Tes - Эффективная температура на солнце - температура, которую ощущает человек, с поправкой на солнечный нагрев. Характеристика знойности погоды. Зависит от высоты солнца над горизонтом, облачности и скорости ветра. Ночью, в пасмурную погоду, а также при ветре 12 м/с и более поправка равна нулю.
P - Атмосферное давление - приведенное к уровню моря атмосферное давление.
Po - Атмосферное давление - измеренное на уровне метеостанции атмосферное давление.
Tmin - Минимальная температура - минимум температуры воздуха на высоте 2 м над землей.
Tmax - Максимальная температура - максимум температуры воздуха на высоте 2 м над землей.
R - Количество осадков - Количество выпавших осадков за период времени, мм. При наведении курсора мыши на число - период времени, за который выпало указанное количество осадков.
R24 - Количество осадков - Количество выпавших осадков за 24 часа, мм.
S - Снежный покров - Высота снежного покрова, см. При наведении курсора мыши на число - состояние снежного покрова и степень покрытия местности в баллах.